INTELSAT 34 (IS-34)

Last updated on Fri Dec 19 2025 00:02:51 GMT+0000 (Coordinated Universal Time)

1 40874U 15039A 25352.54294788 -.00000260 00000+0 00000+0 0 9992 2 40874 0.0152 339.1301 0000611 160.2363 87.9911 1.00269877 37816
UTC large
Height (km)
Speed (km/s)
/
Latitude / Longitude
Inclination (degrees)
Orbital Period (minutes)
Azimuth
Elevation
Range (km)
Doppler Factor

Next 0 passes for location: London (51.5072 / 0.1276)

Sorry there are no passes over London.